Year,Month,Day,Hour,Minute,Value (Times are PST for windgust in km/hr)
2010,07,14,00,00,9.60
2010,07,14,00,01,9.60
2010,07,14,00,02,11.30
2010,07,14,00,03,6.40
2010,07,14,00,04,14.50
2010,07,14,00,05,12.90
2010,07,14,00,06,16.10
2010,07,14,00,07,11.30
2010,07,14,00,08,14.50
2010,07,14,00,09,9.60
2010,07,14,00,10,11.30
2010,07,14,00,11,11.30
2010,07,14,00,12,14.50
2010,07,14,00,13,14.50
2010,07,14,00,14,16.10
2010,07,14,00,15,11.30
2010,07,14,00,16,9.60
2010,07,14,00,17,11.30
2010,07,14,00,18,14.50
2010,07,14,00,19,9.60
2010,07,14,00,20,9.60
2010,07,14,00,21,9.60
2010,07,14,00,22,11.30
2010,07,14,00,23,11.30
2010,07,14,00,24,9.60
2010,07,14,00,25,11.30
2010,07,14,00,26,14.50
2010,07,14,00,27,11.30
2010,07,14,00,28,11.30
2010,07,14,00,29,11.30
2010,07,14,00,30,11.30
2010,07,14,00,31,8.10
2010,07,14,00,32,6.40
2010,07,14,00,33,8.10
2010,07,14,00,34,9.60
2010,07,14,00,35,9.60
2010,07,14,00,36,9.60
2010,07,14,00,37,8.10
2010,07,14,00,38,9.60
2010,07,14,00,39,14.50
2010,07,14,00,40,11.30
2010,07,14,00,41,11.30
2010,07,14,00,42,11.30
2010,07,14,00,43,8.10
2010,07,14,00,44,14.50
2010,07,14,00,45,9.60
2010,07,14,00,46,11.30
2010,07,14,00,47,9.60
2010,07,14,00,48,14.50
2010,07,14,00,49,12.90
2010,07,14,00,50,11.30
2010,07,14,00,51,11.30
2010,07,14,00,52,11.30
2010,07,14,00,53,9.60
2010,07,14,00,54,9.60
2010,07,14,00,55,12.90
2010,07,14,00,56,9.60
2010,07,14,00,57,11.30
2010,07,14,00,58,9.60
2010,07,14,00,59,11.30
2010,07,14,01,00,11.30
2010,07,14,01,01,11.30
2010,07,14,01,02,12.90
2010,07,14,01,03,9.60
2010,07,14,01,04,9.60
2010,07,14,01,05,8.10
2010,07,14,01,06,9.60
2010,07,14,01,07,9.60
2010,07,14,01,08,8.10
2010,07,14,01,09,9.60
2010,07,14,01,10,9.60
2010,07,14,01,11,9.60
2010,07,14,01,12,8.10
2010,07,14,01,13,8.10
2010,07,14,01,14,8.10
2010,07,14,01,15,8.10
2010,07,14,01,16,8.10
2010,07,14,01,17,8.10
2010,07,14,01,18,9.60
2010,07,14,01,19,8.10
2010,07,14,01,20,8.10
2010,07,14,01,21,9.60
2010,07,14,01,22,8.10
2010,07,14,01,23,8.10
2010,07,14,01,24,8.10
2010,07,14,01,25,4.80
2010,07,14,01,26,9.60
2010,07,14,01,27,6.40
2010,07,14,01,28,6.40
2010,07,14,01,29,11.30
2010,07,14,01,30,6.40
2010,07,14,01,31,4.80
2010,07,14,01,32,4.80
2010,07,14,01,33,4.80
2010,07,14,01,34,4.80
2010,07,14,01,35,6.40
2010,07,14,01,36,6.40
2010,07,14,01,37,3.20
2010,07,14,01,38,4.80
2010,07,14,01,39,8.10
2010,07,14,01,40,6.40
2010,07,14,01,41,9.60
2010,07,14,01,42,8.10
2010,07,14,01,43,6.40
2010,07,14,01,44,6.40
2010,07,14,01,45,8.10
2010,07,14,01,46,8.10
2010,07,14,01,47,8.10
2010,07,14,01,48,6.40
2010,07,14,01,49,4.80
2010,07,14,01,50,3.20
2010,07,14,01,51,3.20
2010,07,14,01,52,3.20
2010,07,14,01,53,3.20
2010,07,14,01,54,1.60
2010,07,14,01,55,1.60
2010,07,14,01,56,6.40
2010,07,14,01,57,4.80
2010,07,14,02,20,1.60
2010,07,14,02,21,4.80
2010,07,14,02,22,6.40
2010,07,14,02,23,1.60
2010,07,14,02,24,6.40
2010,07,14,02,25,4.80
2010,07,14,02,26,6.40
2010,07,14,02,27,1.60
2010,07,14,02,29,3.20
2010,07,14,02,30,6.40
2010,07,14,02,31,4.80
2010,07,14,02,32,1.60
2010,07,14,02,34,1.60
2010,07,14,02,35,1.60
2010,07,14,02,36,1.60
2010,07,14,02,37,1.60
2010,07,14,02,38,1.60
2010,07,14,02,39,1.60
2010,07,14,02,40,1.60
2010,07,14,02,41,1.60
2010,07,14,02,42,3.20
2010,07,14,02,43,6.40
2010,07,14,02,44,4.80
2010,07,14,02,45,4.80
2010,07,14,02,46,4.80
2010,07,14,02,47,4.80
2010,07,14,02,48,6.40
2010,07,14,02,49,6.40
2010,07,14,02,50,6.40
2010,07,14,02,51,6.40
2010,07,14,02,52,3.20
2010,07,14,02,53,1.60
2010,07,14,02,54,4.80
2010,07,14,02,55,3.20
2010,07,14,02,56,4.80
2010,07,14,02,57,6.40
2010,07,14,02,58,1.60
2010,07,14,02,59,1.60
2010,07,14,03,00,1.60
2010,07,14,03,07,1.60
2010,07,14,03,30,1.60
2010,07,14,03,33,1.60
2010,07,14,03,34,1.60
2010,07,14,03,35,1.60
2010,07,14,03,36,1.60
2010,07,14,03,54,1.60
2010,07,14,04,33,1.60
2010,07,14,05,52,1.60
2010,07,14,06,08,1.60
2010,07,14,08,13,1.60
2010,07,14,08,15,1.60
2010,07,14,08,16,1.60
2010,07,14,08,20,1.60
2010,07,14,08,22,1.60
2010,07,14,08,27,1.60
2010,07,14,08,28,1.60
2010,07,14,08,33,1.60
2010,07,14,08,34,1.60
2010,07,14,08,35,1.60
2010,07,14,08,37,1.60
2010,07,14,08,44,1.60
2010,07,14,08,45,1.60
2010,07,14,08,47,1.60
2010,07,14,08,54,1.60
2010,07,14,08,55,1.60
2010,07,14,08,56,1.60
2010,07,14,08,59,1.60
2010,07,14,09,00,1.60
2010,07,14,09,01,1.60
2010,07,14,09,02,6.40
2010,07,14,09,03,6.40
2010,07,14,09,04,4.80
2010,07,14,09,06,1.60
2010,07,14,09,07,1.60
2010,07,14,09,09,1.60
2010,07,14,09,10,1.60
2010,07,14,09,11,1.60
2010,07,14,09,12,1.60
2010,07,14,09,14,9.60
2010,07,14,09,15,4.80
2010,07,14,09,16,6.40
2010,07,14,09,17,8.10
2010,07,14,09,18,6.40
2010,07,14,09,19,6.40
2010,07,14,09,20,3.20
2010,07,14,09,21,1.60
2010,07,14,09,22,1.60
2010,07,14,09,23,4.80
2010,07,14,09,24,6.40
2010,07,14,09,25,4.80
2010,07,14,09,26,1.60
2010,07,14,09,27,1.60
2010,07,14,09,28,6.40
2010,07,14,09,29,3.20
2010,07,14,09,31,1.60
2010,07,14,09,32,1.60
2010,07,14,09,33,1.60
2010,07,14,09,34,1.60
2010,07,14,09,35,1.60
2010,07,14,09,36,1.60
2010,07,14,09,38,3.20
2010,07,14,09,39,6.40
2010,07,14,09,40,4.80
2010,07,14,09,43,6.40
2010,07,14,09,44,6.40
2010,07,14,09,45,1.60
2010,07,14,09,46,4.80
2010,07,14,09,48,6.40
2010,07,14,09,49,8.10
2010,07,14,09,50,4.80
2010,07,14,09,51,8.10
2010,07,14,09,52,6.40
2010,07,14,09,53,6.40
2010,07,14,09,54,6.40
2010,07,14,09,55,4.80
2010,07,14,09,56,1.60
2010,07,14,09,57,8.10
2010,07,14,09,58,4.80
2010,07,14,09,59,8.10
2010,07,14,10,00,1.60
2010,07,14,10,03,8.10
2010,07,14,10,04,3.20
2010,07,14,10,05,1.60
2010,07,14,10,06,6.40
2010,07,14,10,07,6.40
2010,07,14,10,08,9.60
2010,07,14,10,09,8.10
2010,07,14,10,10,8.10
2010,07,14,10,11,3.20
2010,07,14,10,12,6.40
2010,07,14,10,13,6.40
2010,07,14,10,14,9.60
2010,07,14,10,15,1.60
2010,07,14,10,16,3.20
2010,07,14,10,17,6.40
2010,07,14,10,18,9.60
2010,07,14,10,19,8.10
2010,07,14,10,20,3.20
2010,07,14,10,21,6.40
2010,07,14,10,22,6.40
2010,07,14,10,23,6.40
2010,07,14,10,24,4.80
2010,07,14,10,25,4.80
2010,07,14,10,26,1.60
2010,07,14,10,27,4.80
2010,07,14,10,28,6.40
2010,07,14,10,29,8.10
2010,07,14,10,30,8.10
2010,07,14,10,31,3.20
2010,07,14,10,32,4.80
2010,07,14,10,33,6.40
2010,07,14,10,34,4.80
2010,07,14,10,35,6.40
2010,07,14,10,36,9.60
2010,07,14,10,37,8.10
2010,07,14,10,38,11.30
2010,07,14,10,39,8.10
2010,07,14,10,40,9.60
2010,07,14,10,41,9.60
2010,07,14,10,42,19.30
2010,07,14,10,43,16.10
2010,07,14,10,44,6.40
2010,07,14,10,45,1.60
2010,07,14,10,46,4.80
2010,07,14,10,47,11.30
2010,07,14,10,48,11.30
2010,07,14,10,49,17.70
2010,07,14,10,50,9.60
2010,07,14,10,51,19.30
2010,07,14,10,52,16.10
2010,07,14,10,53,16.10
2010,07,14,10,54,16.10
2010,07,14,10,55,17.70
2010,07,14,10,56,17.70
2010,07,14,10,57,14.50
2010,07,14,10,58,4.80
2010,07,14,10,59,4.80
2010,07,14,11,00,6.40
2010,07,14,11,01,6.40
2010,07,14,11,02,6.40
2010,07,14,11,03,9.60
2010,07,14,11,04,12.90
2010,07,14,11,05,11.30
2010,07,14,11,06,17.70
2010,07,14,11,07,9.60
2010,07,14,11,08,8.10
2010,07,14,11,09,19.30
2010,07,14,11,10,16.10
2010,07,14,11,11,17.70
2010,07,14,11,12,11.30
2010,07,14,11,14,16.10
2010,07,14,11,15,12.90
2010,07,14,11,16,8.10
2010,07,14,11,17,6.40
2010,07,14,11,18,6.40
2010,07,14,11,19,6.40
2010,07,14,11,20,11.30
2010,07,14,11,21,9.60
2010,07,14,11,22,8.10
2010,07,14,11,23,6.40
2010,07,14,11,24,17.70
2010,07,14,11,25,19.30
2010,07,14,11,26,4.80
2010,07,14,11,27,3.20
2010,07,14,11,28,3.20
2010,07,14,11,29,4.80
2010,07,14,11,30,11.30
2010,07,14,11,31,16.10
2010,07,14,11,32,9.60
2010,07,14,11,33,8.10
2010,07,14,11,34,1.60
2010,07,14,11,35,3.20
2010,07,14,11,36,6.40
2010,07,14,11,37,9.60
2010,07,14,11,38,8.10
2010,07,14,11,39,11.30
2010,07,14,11,40,14.50
2010,07,14,11,41,20.90
2010,07,14,11,42,19.30
2010,07,14,11,43,19.30
2010,07,14,11,44,9.60
2010,07,14,11,45,16.10
2010,07,14,11,46,16.10
2010,07,14,11,47,8.10
2010,07,14,11,48,9.60
2010,07,14,11,49,20.90
2010,07,14,11,50,19.30
2010,07,14,11,51,6.40
2010,07,14,11,52,11.30
2010,07,14,11,53,11.30
2010,07,14,11,54,12.90
2010,07,14,11,55,16.10
2010,07,14,11,56,14.50
2010,07,14,11,57,8.10
2010,07,14,11,58,8.10
2010,07,14,11,59,6.40
2010,07,14,12,00,11.30
2010,07,14,12,01,8.10
2010,07,14,12,02,20.90
2010,07,14,12,03,17.70
2010,07,14,12,04,9.60
2010,07,14,12,05,16.10
2010,07,14,12,13,8.10
2010,07,14,12,14,6.40
2010,07,14,12,15,11.30
2010,07,14,12,16,6.40
2010,07,14,12,17,16.10
2010,07,14,12,18,11.30
2010,07,14,12,19,6.40
2010,07,14,12,20,6.40
2010,07,14,12,21,3.20
2010,07,14,12,22,9.60
2010,07,14,12,23,11.30
2010,07,14,12,24,20.90
2010,07,14,12,25,16.10
2010,07,14,12,26,17.70
2010,07,14,12,27,16.10
2010,07,14,12,28,16.10
2010,07,14,12,29,17.70
2010,07,14,12,30,16.10
2010,07,14,12,31,16.10
2010,07,14,12,32,16.10
2010,07,14,12,33,9.60
2010,07,14,12,34,11.30
2010,07,14,12,35,8.10
2010,07,14,12,36,14.50
2010,07,14,12,37,16.10
2010,07,14,12,38,20.90
2010,07,14,12,39,14.50
2010,07,14,12,40,16.10
2010,07,14,12,41,25.70
2010,07,14,12,42,16.10
2010,07,14,12,43,11.30
2010,07,14,12,44,9.60
2010,07,14,12,45,11.30
2010,07,14,12,46,17.70
2010,07,14,12,47,12.90
2010,07,14,12,48,16.10
2010,07,14,12,49,16.10
2010,07,14,12,50,17.70
2010,07,14,12,51,14.50
2010,07,14,12,52,19.30
2010,07,14,12,53,19.30
2010,07,14,12,54,19.30
2010,07,14,12,55,17.70
2010,07,14,12,56,9.60
2010,07,14,12,57,6.40
2010,07,14,12,58,11.30
2010,07,14,12,59,14.50
2010,07,14,13,00,4.80
2010,07,14,13,01,6.40
2010,07,14,13,02,9.60
2010,07,14,13,03,9.60
2010,07,14,13,04,6.40
2010,07,14,13,05,8.10
2010,07,14,13,06,8.10
2010,07,14,13,07,16.10
2010,07,14,13,08,20.90
2010,07,14,13,09,19.30
2010,07,14,13,10,17.70
2010,07,14,13,11,16.10
2010,07,14,13,12,17.70
2010,07,14,13,13,17.70
2010,07,14,13,14,20.90
2010,07,14,13,15,19.30
2010,07,14,13,16,19.30
2010,07,14,13,17,19.30
2010,07,14,13,18,8.10
2010,07,14,13,19,4.80
2010,07,14,13,20,19.30
2010,07,14,13,21,22.50
2010,07,14,13,22,24.20
2010,07,14,13,23,20.90
2010,07,14,13,24,20.90
2010,07,14,13,25,14.50
2010,07,14,13,26,8.10
2010,07,14,13,27,8.10
2010,07,14,13,28,4.80
2010,07,14,13,29,11.30
2010,07,14,13,30,3.20
2010,07,14,13,31,8.10
2010,07,14,13,32,11.30
2010,07,14,13,33,19.30
2010,07,14,13,34,11.30
2010,07,14,13,35,20.90
2010,07,14,13,36,19.30
2010,07,14,13,37,20.90
2010,07,14,13,38,16.10
2010,07,14,13,39,19.30
2010,07,14,13,40,20.90
2010,07,14,13,41,19.30
2010,07,14,13,42,9.60
2010,07,14,13,43,9.60
2010,07,14,13,44,19.30
2010,07,14,13,45,20.90
2010,07,14,13,46,6.40
2010,07,14,13,47,19.30
2010,07,14,13,48,22.50
2010,07,14,13,49,4.80
2010,07,14,13,50,17.70
2010,07,14,13,51,17.70
2010,07,14,13,52,20.90
2010,07,14,13,53,20.90
2010,07,14,13,54,16.10
2010,07,14,13,55,14.50
2010,07,14,13,56,17.70
2010,07,14,13,57,17.70
2010,07,14,13,58,12.90
2010,07,14,13,59,14.50
2010,07,14,14,00,17.70
2010,07,14,14,01,14.50
2010,07,14,14,02,8.10
2010,07,14,14,03,17.70
2010,07,14,14,04,20.90
2010,07,14,14,05,12.90
2010,07,14,14,06,6.40
2010,07,14,14,07,6.40
2010,07,14,14,08,11.30
2010,07,14,14,09,17.70
2010,07,14,14,10,11.30
2010,07,14,14,11,8.10
2010,07,14,14,12,11.30
2010,07,14,14,13,17.70
2010,07,14,14,14,19.30
2010,07,14,14,15,24.20
2010,07,14,14,16,19.30
2010,07,14,14,17,22.50
2010,07,14,14,18,20.90
2010,07,14,14,19,19.30
2010,07,14,14,20,20.90
2010,07,14,14,21,22.50
2010,07,14,14,22,14.50
2010,07,14,14,23,19.30
2010,07,14,14,24,19.30
2010,07,14,14,25,20.90
2010,07,14,14,26,20.90
2010,07,14,14,27,16.10
2010,07,14,14,28,17.70
2010,07,14,14,29,17.70
2010,07,14,14,30,8.10
2010,07,14,14,31,14.50
2010,07,14,14,32,17.70
2010,07,14,14,33,16.10
2010,07,14,14,34,16.10
2010,07,14,14,35,11.30
2010,07,14,14,36,8.10
2010,07,14,14,37,14.50
2010,07,14,14,38,20.90
2010,07,14,14,39,25.70
2010,07,14,14,40,20.90
2010,07,14,14,41,20.90
2010,07,14,14,42,22.50
2010,07,14,14,43,19.30
2010,07,14,14,44,11.30
2010,07,14,14,45,16.10
2010,07,14,14,46,17.70
2010,07,14,14,47,16.10
2010,07,14,14,48,17.70
2010,07,14,14,49,20.90
2010,07,14,14,50,17.70
2010,07,14,14,51,14.50
2010,07,14,14,52,16.10
2010,07,14,14,53,27.40
2010,07,14,14,54,27.40
2010,07,14,14,55,17.70
2010,07,14,14,56,22.50
2010,07,14,14,57,14.50
2010,07,14,14,58,16.10
2010,07,14,14,59,17.70
2010,07,14,15,00,12.90
2010,07,14,15,01,16.10
2010,07,14,15,02,19.30
2010,07,14,15,03,16.10
2010,07,14,15,04,22.50
2010,07,14,15,05,19.30
2010,07,14,15,06,20.90
2010,07,14,15,07,24.20
2010,07,14,15,08,25.70
2010,07,14,15,09,16.10
2010,07,14,15,10,20.90
2010,07,14,15,11,6.40
2010,07,14,15,12,16.10
2010,07,14,15,13,19.30
2010,07,14,15,14,19.30
2010,07,14,15,15,14.50
2010,07,14,15,16,20.90
2010,07,14,15,17,16.10
2010,07,14,15,18,14.50
2010,07,14,15,19,22.50
2010,07,14,15,20,22.50
2010,07,14,15,21,17.70
2010,07,14,15,22,20.90
2010,07,14,15,23,19.30
2010,07,14,15,24,16.10
2010,07,14,15,25,9.60
2010,07,14,15,26,19.30
2010,07,14,15,27,16.10
2010,07,14,15,28,20.90
2010,07,14,15,29,19.30
2010,07,14,15,30,19.30
2010,07,14,15,31,20.90
2010,07,14,15,32,19.30
2010,07,14,15,33,22.50
2010,07,14,15,34,22.50
2010,07,14,15,35,11.30
2010,07,14,15,36,9.60
2010,07,14,15,37,9.60
2010,07,14,15,38,16.10
2010,07,14,15,39,12.90
2010,07,14,15,40,14.50
2010,07,14,15,41,14.50
2010,07,14,15,42,8.10
2010,07,14,15,43,19.30
2010,07,14,15,44,19.30
2010,07,14,15,45,17.70
2010,07,14,15,46,22.50
2010,07,14,15,47,12.90
2010,07,14,15,48,19.30
2010,07,14,15,49,17.70
2010,07,14,15,50,25.70
2010,07,14,15,51,24.20
2010,07,14,15,52,27.40
2010,07,14,15,53,19.30
2010,07,14,15,54,16.10
2010,07,14,15,55,20.90
2010,07,14,15,56,24.20
2010,07,14,15,57,11.30
2010,07,14,15,58,11.30
2010,07,14,15,59,17.70
2010,07,14,16,00,20.90
2010,07,14,16,01,16.10
2010,07,14,16,02,14.50
2010,07,14,16,03,20.90
2010,07,14,16,04,17.70
2010,07,14,16,05,11.30
2010,07,14,16,06,11.30
2010,07,14,16,07,14.50
2010,07,14,16,08,11.30
2010,07,14,16,09,16.10
2010,07,14,16,10,12.90
2010,07,14,16,11,14.50
2010,07,14,16,12,9.60
2010,07,14,16,13,11.30
2010,07,14,16,14,8.10
2010,07,14,16,15,6.40
2010,07,14,16,16,8.10
2010,07,14,16,17,6.40
2010,07,14,16,18,4.80
2010,07,14,16,19,20.90
2010,07,14,16,20,17.70
2010,07,14,16,21,9.60
2010,07,14,16,22,12.90
2010,07,14,16,23,16.10
2010,07,14,16,24,16.10
2010,07,14,16,25,19.30
2010,07,14,16,26,16.10
2010,07,14,16,27,14.50
2010,07,14,16,28,16.10
2010,07,14,16,29,19.30
2010,07,14,16,30,22.50
2010,07,14,16,31,8.10
2010,07,14,16,32,19.30
2010,07,14,16,33,27.40
2010,07,14,16,34,20.90
2010,07,14,16,35,24.20
2010,07,14,16,36,16.10
2010,07,14,16,37,20.90
2010,07,14,16,38,16.10
2010,07,14,16,39,16.10
2010,07,14,16,40,9.60
2010,07,14,16,41,19.30
2010,07,14,16,42,17.70
2010,07,14,16,43,20.90
2010,07,14,16,44,17.70
2010,07,14,16,45,11.30
2010,07,14,16,46,11.30
2010,07,14,16,47,14.50
2010,07,14,16,48,22.50
2010,07,14,16,49,20.90
2010,07,14,16,50,24.20
2010,07,14,16,51,22.50
2010,07,14,16,52,19.30
2010,07,14,16,53,14.50
2010,07,14,16,54,20.90
2010,07,14,16,55,20.90
2010,07,14,16,56,19.30
2010,07,14,16,57,16.10
2010,07,14,16,58,24.20
2010,07,14,16,59,17.70
2010,07,14,17,00,22.50
2010,07,14,17,01,29.00
2010,07,14,17,02,19.30
2010,07,14,17,03,19.30
2010,07,14,17,04,20.90
2010,07,14,17,05,17.70
2010,07,14,17,06,29.00
2010,07,14,17,07,19.30
2010,07,14,17,08,14.50
2010,07,14,17,09,24.20
2010,07,14,17,10,24.20
2010,07,14,17,11,20.90
2010,07,14,17,12,22.50
2010,07,14,17,13,22.50
2010,07,14,17,14,17.70
2010,07,14,17,15,19.30
2010,07,14,17,16,19.30
2010,07,14,17,17,17.70
2010,07,14,17,18,16.10
2010,07,14,17,19,24.20
2010,07,14,17,20,17.70
2010,07,14,17,21,24.20
2010,07,14,17,22,25.70
2010,07,14,17,23,19.30
2010,07,14,17,24,16.10
2010,07,14,17,25,16.10
2010,07,14,17,26,19.30
2010,07,14,17,27,11.30
2010,07,14,17,28,19.30
2010,07,14,17,29,20.90
2010,07,14,17,30,22.50
2010,07,14,17,31,24.20
2010,07,14,17,32,20.90
2010,07,14,17,33,22.50
2010,07,14,17,34,19.30
2010,07,14,17,35,22.50
2010,07,14,17,36,20.90
2010,07,14,17,37,17.70
2010,07,14,17,38,19.30
2010,07,14,17,39,20.90
2010,07,14,17,40,11.30
2010,07,14,17,41,24.20
2010,07,14,17,42,17.70
2010,07,14,17,43,16.10
2010,07,14,17,44,19.30
2010,07,14,17,45,9.60
2010,07,14,17,46,14.50
2010,07,14,17,47,17.70
2010,07,14,17,48,12.90
2010,07,14,17,49,16.10
2010,07,14,17,50,16.10
2010,07,14,17,51,14.50
2010,07,14,17,52,25.70
2010,07,14,17,53,27.40
2010,07,14,17,54,22.50
2010,07,14,17,55,14.50
2010,07,14,17,56,16.10
2010,07,14,17,57,17.70
2010,07,14,17,58,14.50
2010,07,14,17,59,19.30
2010,07,14,18,00,12.90
2010,07,14,18,01,16.10
2010,07,14,18,02,14.50
2010,07,14,18,03,9.60
2010,07,14,18,04,11.30
2010,07,14,18,05,8.10
2010,07,14,18,06,17.70
2010,07,14,18,07,22.50
2010,07,14,18,08,20.90
2010,07,14,18,09,16.10
2010,07,14,18,10,25.70
2010,07,14,18,11,17.70
2010,07,14,18,12,9.60
2010,07,14,18,13,16.10
2010,07,14,18,14,12.90
2010,07,14,18,15,16.10
2010,07,14,18,16,16.10
2010,07,14,18,17,19.30
2010,07,14,18,18,16.10
2010,07,14,18,19,16.10
2010,07,14,18,20,16.10
2010,07,14,18,21,16.10
2010,07,14,18,22,14.50
2010,07,14,18,23,16.10
2010,07,14,18,24,12.90
2010,07,14,18,25,11.30
2010,07,14,18,26,17.70
2010,07,14,18,27,19.30
2010,07,14,18,28,17.70
2010,07,14,18,29,19.30
2010,07,14,18,30,19.30
2010,07,14,18,31,17.70
2010,07,14,18,32,16.10
2010,07,14,18,33,14.50
2010,07,14,18,34,20.90
2010,07,14,18,35,20.90
2010,07,14,18,36,19.30
2010,07,14,18,37,24.20
2010,07,14,18,38,20.90
2010,07,14,18,39,19.30
2010,07,14,18,40,19.30
2010,07,14,18,41,19.30
2010,07,14,18,42,16.10
2010,07,14,18,43,19.30
2010,07,14,18,44,14.50
2010,07,14,18,45,11.30
2010,07,14,18,46,17.70
2010,07,14,18,47,20.90
2010,07,14,18,48,17.70
2010,07,14,18,49,19.30
2010,07,14,18,50,16.10
2010,07,14,18,51,19.30
2010,07,14,18,52,22.50
2010,07,14,18,53,20.90
2010,07,14,18,54,17.70
2010,07,14,18,55,17.70
2010,07,14,18,56,16.10
2010,07,14,18,57,9.60
2010,07,14,18,58,14.50
2010,07,14,18,59,19.30
2010,07,14,19,00,16.10
2010,07,14,19,01,9.60
2010,07,14,19,02,11.30
2010,07,14,19,03,8.10
2010,07,14,19,04,17.70
2010,07,14,19,05,16.10
2010,07,14,19,06,14.50
2010,07,14,19,07,16.10
2010,07,14,19,08,16.10
2010,07,14,19,09,17.70
2010,07,14,19,10,16.10
2010,07,14,19,11,16.10
2010,07,14,19,12,14.50
2010,07,14,19,13,16.10
2010,07,14,19,14,11.30
2010,07,14,19,15,11.30
2010,07,14,19,16,11.30
2010,07,14,19,17,8.10
2010,07,14,19,18,6.40
2010,07,14,19,19,6.40
2010,07,14,19,20,9.60
2010,07,14,19,21,9.60
2010,07,14,19,22,9.60
2010,07,14,19,23,6.40
2010,07,14,19,24,6.40
2010,07,14,19,25,11.30
2010,07,14,19,26,6.40
2010,07,14,19,27,9.60
2010,07,14,19,28,9.60
2010,07,14,19,29,6.40
2010,07,14,19,30,6.40
2010,07,14,19,31,4.80
2010,07,14,19,32,6.40
2010,07,14,19,33,8.10
2010,07,14,19,34,8.10
2010,07,14,19,35,8.10
2010,07,14,19,36,8.10
2010,07,14,19,37,8.10
2010,07,14,19,38,9.60
2010,07,14,19,39,8.10
2010,07,14,19,40,6.40
2010,07,14,19,41,8.10
2010,07,14,19,42,8.10
2010,07,14,19,43,6.40
2010,07,14,19,44,4.80
2010,07,14,19,45,3.20
2010,07,14,19,46,3.20
2010,07,14,19,47,3.20
2010,07,14,19,48,3.20
2010,07,14,19,49,4.80
2010,07,14,19,50,6.40
2010,07,14,19,51,6.40
2010,07,14,19,52,8.10
2010,07,14,19,53,6.40
2010,07,14,19,54,6.40
2010,07,14,19,55,6.40
2010,07,14,19,56,6.40
2010,07,14,19,57,4.80
2010,07,14,19,58,6.40
2010,07,14,19,59,4.80
2010,07,14,20,00,4.80
2010,07,14,20,01,3.20
2010,07,14,20,02,4.80
2010,07,14,20,03,4.80
2010,07,14,20,04,6.40
2010,07,14,20,05,4.80
2010,07,14,20,06,3.20
2010,07,14,20,07,4.80
2010,07,14,20,08,4.80
2010,07,14,20,09,1.60
2010,07,14,20,10,1.60
2010,07,14,20,11,4.80
2010,07,14,20,12,4.80
2010,07,14,20,13,3.20
2010,07,14,20,14,3.20
2010,07,14,20,15,3.20
2010,07,14,20,16,1.60
2010,07,14,20,17,3.20
2010,07,14,20,18,1.60
2010,07,14,20,27,1.60
2010,07,14,20,28,6.40
2010,07,14,20,29,6.40
2010,07,14,20,30,6.40
2010,07,14,20,31,6.40
2010,07,14,20,32,9.60
2010,07,14,20,33,6.40
2010,07,14,20,34,3.20
2010,07,14,20,35,8.10
2010,07,14,20,36,8.10
2010,07,14,20,37,8.10
2010,07,14,20,38,6.40
2010,07,14,20,39,9.60
2010,07,14,20,40,8.10
2010,07,14,20,41,9.60
2010,07,14,20,42,9.60
2010,07,14,20,43,9.60
2010,07,14,20,44,9.60
2010,07,14,20,45,11.30
2010,07,14,20,46,11.30
2010,07,14,20,47,11.30
2010,07,14,20,48,16.10
2010,07,14,20,49,14.50
2010,07,14,20,50,9.60
2010,07,14,20,51,16.10
2010,07,14,20,52,14.50
2010,07,14,20,53,11.30
2010,07,14,20,54,11.30
2010,07,14,20,55,14.50
2010,07,14,20,56,9.60
2010,07,14,20,57,11.30
2010,07,14,20,58,9.60
2010,07,14,20,59,8.10
2010,07,14,21,00,6.40
2010,07,14,21,01,4.80
2010,07,14,21,02,6.40
2010,07,14,21,03,8.10
2010,07,14,21,04,4.80
2010,07,14,21,05,14.50
2010,07,14,21,06,9.60
2010,07,14,21,07,8.10
2010,07,14,21,08,9.60
2010,07,14,21,09,8.10
2010,07,14,21,10,9.60
2010,07,14,21,11,11.30
2010,07,14,21,12,11.30
2010,07,14,21,13,8.10
2010,07,14,21,14,8.10
2010,07,14,21,15,9.60
2010,07,14,21,16,11.30
2010,07,14,21,17,9.60
2010,07,14,21,18,9.60
2010,07,14,21,19,9.60
2010,07,14,21,20,11.30
2010,07,14,21,21,9.60
2010,07,14,21,22,11.30
2010,07,14,21,23,9.60
2010,07,14,21,24,8.10
2010,07,14,21,25,9.60
2010,07,14,21,26,8.10
2010,07,14,21,27,8.10
2010,07,14,21,28,8.10
2010,07,14,21,29,11.30
2010,07,14,21,30,8.10
2010,07,14,21,31,11.30
2010,07,14,21,32,9.60
2010,07,14,21,33,11.30
2010,07,14,21,34,8.10
2010,07,14,21,35,6.40
2010,07,14,21,36,8.10
2010,07,14,21,37,6.40
2010,07,14,21,38,6.40
2010,07,14,21,39,8.10
2010,07,14,21,40,8.10
2010,07,14,21,41,8.10
2010,07,14,21,42,11.30
2010,07,14,21,43,8.10
2010,07,14,21,44,9.60
2010,07,14,21,45,8.10
2010,07,14,21,46,9.60
2010,07,14,21,47,11.30
2010,07,14,21,48,11.30
2010,07,14,21,49,9.60
2010,07,14,21,50,11.30
2010,07,14,21,51,12.90
2010,07,14,21,52,14.50
2010,07,14,21,53,9.60
2010,07,14,21,54,9.60
2010,07,14,21,55,9.60
2010,07,14,21,56,14.50
2010,07,14,21,57,11.30
2010,07,14,21,58,9.60
2010,07,14,21,59,11.30
2010,07,14,22,00,12.90
2010,07,14,22,01,8.10
2010,07,14,22,02,11.30
2010,07,14,22,03,14.50
2010,07,14,22,04,14.50
2010,07,14,22,05,11.30
2010,07,14,22,06,12.90
2010,07,14,22,07,9.60
2010,07,14,22,08,9.60
2010,07,14,22,09,8.10
2010,07,14,22,10,16.10
2010,07,14,22,11,9.60
2010,07,14,22,12,9.60
2010,07,14,22,13,8.10
2010,07,14,22,14,9.60
2010,07,14,22,15,17.70
2010,07,14,22,16,16.10
2010,07,14,22,17,6.40
2010,07,14,22,18,8.10
2010,07,14,22,19,11.30
2010,07,14,22,20,8.10
2010,07,14,22,21,9.60
2010,07,14,22,22,8.10
2010,07,14,22,23,9.60
2010,07,14,22,24,9.60
2010,07,14,22,25,14.50
2010,07,14,22,26,16.10
2010,07,14,22,27,20.90
2010,07,14,22,28,14.50
2010,07,14,22,29,8.10
2010,07,14,22,30,12.90
2010,07,14,22,31,17.70
2010,07,14,22,32,16.10
2010,07,14,22,33,19.30
2010,07,14,22,34,14.50
2010,07,14,22,35,14.50
2010,07,14,22,36,17.70
2010,07,14,22,37,14.50
2010,07,14,22,38,14.50
2010,07,14,22,39,9.60
2010,07,14,22,40,14.50
2010,07,14,22,41,17.70
2010,07,14,22,42,24.20
2010,07,14,22,43,17.70
2010,07,14,22,44,14.50
2010,07,14,22,45,20.90
2010,07,14,22,46,22.50
2010,07,14,22,47,19.30
2010,07,14,22,48,17.70
2010,07,14,22,49,22.50
2010,07,14,22,50,20.90
2010,07,14,22,51,11.30
2010,07,14,22,52,20.90
2010,07,14,22,53,19.30
2010,07,14,22,54,11.30
2010,07,14,22,55,14.50
2010,07,14,22,56,16.10
2010,07,14,22,57,14.50
2010,07,14,22,58,19.30
2010,07,14,22,59,16.10
2010,07,14,23,00,12.90
2010,07,14,23,01,12.90
2010,07,14,23,02,11.30
2010,07,14,23,03,14.50
2010,07,14,23,04,14.50
2010,07,14,23,05,11.30
2010,07,14,23,06,17.70
2010,07,14,23,07,14.50
2010,07,14,23,08,16.10
2010,07,14,23,09,14.50
2010,07,14,23,10,20.90
2010,07,14,23,11,20.90
2010,07,14,23,12,20.90
2010,07,14,23,13,25.70
2010,07,14,23,14,32.20
2010,07,14,23,15,24.20
2010,07,14,23,16,24.20
2010,07,14,23,17,20.90
2010,07,14,23,18,24.20
2010,07,14,23,19,27.40
2010,07,14,23,20,22.50
2010,07,14,23,21,30.60
2010,07,14,23,22,24.20
2010,07,14,23,23,24.20
2010,07,14,23,24,24.20
2010,07,14,23,25,19.30
2010,07,14,23,26,22.50
2010,07,14,23,27,25.70
2010,07,14,23,28,25.70
2010,07,14,23,29,20.90
2010,07,14,23,30,20.90
2010,07,14,23,31,25.70
2010,07,14,23,32,24.20
2010,07,14,23,33,24.20
2010,07,14,23,34,24.20
2010,07,14,23,35,16.10
2010,07,14,23,36,22.50
2010,07,14,23,37,19.30
2010,07,14,23,38,22.50
2010,07,14,23,39,20.90
2010,07,14,23,40,24.20
2010,07,14,23,41,24.20
2010,07,14,23,42,22.50
2010,07,14,23,43,27.40
2010,07,14,23,44,25.70
2010,07,14,23,45,24.20
2010,07,14,23,46,24.20
2010,07,14,23,47,30.60
2010,07,14,23,48,32.20
2010,07,14,23,49,27.40
2010,07,14,23,50,20.90
2010,07,14,23,51,20.90
2010,07,14,23,52,25.70
2010,07,14,23,53,22.50
2010,07,14,23,54,17.70
2010,07,14,23,55,20.90
2010,07,14,23,56,32.20
2010,07,14,23,57,17.70
2010,07,14,23,58,32.20
2010,07,14,23,59,27.40
